TimeCST,TemperatureF,Dew PointF,Humidity,Sea Level PressureIn,VisibilityMPH,Wind Direction,Wind SpeedMPH,Gust SpeedMPH,PrecipitationIn,Events,Conditions,WindDirDegrees,DateUTC
12:54 AM,45.0,12.0,26,29.42,10.0,NNW,26.5,33.4,N/A,,Clear,330,2013-02-18 06:54:00
1:01 AM,44.6,14.0,29,29.47,10.0,NNW,25.3,-,N/A,,Clear,330,2013-02-18 07:01:00
1:54 AM,43.0,24.1,47,29.47,10.0,NNW,31.1,46.0,N/A,,Clear,340,2013-02-18 07:54:00
2:54 AM,39.9,26.1,58,29.53,10.0,North,31.1,39.1,N/A,,Clear,350,2013-02-18 08:54:00
3:54 AM,37.9,24.1,57,29.57,10.0,North,27.6,35.7,N/A,,Clear,350,2013-02-18 09:54:00
4:54 AM,36.0,24.1,62,29.62,10.0,North,28.8,35.7,N/A,,Clear,350,2013-02-18 10:54:00
5:54 AM,35.1,25.0,67,29.69,10.0,North,25.3,36.8,N/A,,Clear,350,2013-02-18 11:54:00
6:54 AM,33.1,24.1,70,29.76,10.0,NNW,21.9,-,N/A,,Mostly Cloudy,330,2013-02-18 12:54:00
7:54 AM,35.1,24.1,64,29.81,10.0,NNW,25.3,32.2,N/A,,Overcast,340,2013-02-18 13:54:00
8:54 AM,36.0,24.1,62,29.88,10.0,NNW,29.9,40.3,N/A,,Scattered Clouds,340,2013-02-18 14:54:00
9:54 AM,37.0,23.0,57,29.92,10.0,NNW,27.6,40.3,N/A,,Overcast,340,2013-02-18 15:54:00
10:54 AM,39.9,21.9,49,29.94,10.0,North,32.2,36.8,N/A,,Overcast,350,2013-02-18 16:54:00
11:54 AM,43.0,21.0,42,29.96,10.0,North,27.6,38.0,N/A,,Clear,350,2013-02-18 17:54:00
12:54 PM,45.0,19.0,36,29.95,10.0,North,25.3,38.0,N/A,,Clear,350,2013-02-18 18:54:00
1:54 PM,46.0,15.1,29,29.94,10.0,NNW,26.5,36.8,N/A,,Clear,330,2013-02-18 19:54:00
2:54 PM,46.9,12.0,24,29.95,10.0,North,25.3,31.1,N/A,,Clear,350,2013-02-18 20:54:00
3:54 PM,48.0,10.9,22,29.96,10.0,North,21.9,27.6,N/A,,Clear,350,2013-02-18 21:54:00
4:54 PM,46.9,9.0,21,29.99,10.0,NNW,16.1,26.5,N/A,,Clear,340,2013-02-18 22:54:00
5:54 PM,44.1,8.1,23,30.03,10.0,North,13.8,-,N/A,,Clear,360,2013-02-18 23:54:00
6:54 PM,36.0,7.0,30,30.06,10.0,NNE,6.9,-,N/A,,Clear,20,2013-02-19 00:54:00
7:54 PM,30.9,6.1,35,30.10,10.0,NNE,6.9,-,N/A,,Scattered Clouds,20,2013-02-19 01:54:00
8:54 PM,32.0,8.1,37,30.12,10.0,NNE,6.9,-,N/A,,Clear,30,2013-02-19 02:54:00
9:54 PM,24.1,7.0,48,30.17,10.0,NNE,6.9,-,N/A,,Partly Cloudy,20,2013-02-19 03:54:00
10:54 PM,25.0,9.0,51,30.17,10.0,NNE,6.9,-,N/A,,Clear,20,2013-02-19 04:54:00
11:54 PM,26.1,10.0,51,30.18,10.0,West,5.8,-,N/A,,Clear,280,2013-02-19 05:54:00